User: anonymous
Location: Unspecified
(0.0000°N, 0.0000°E)
Time: 07:51:27
(UTC+02:00)
Language:

Ariane H10 - Orbit

View from above orbital plane
View from above orbital plane
View from above satellite
View from above satellite

Ground track
Ground track

The orbit data is extracted from the following two-line orbital elements,

1 21815U 91084C   14109.69154178  .00002413  00000-0  49731-2 0  5021
2 21815 003.7525 201.8946 7206223 208.2297 238.9136 02.30806078185597
Epoch (UTC): 19 April 2014 16:35:49
Eccentricity: 0.7206223
inclination: 3.7525°
perigee height: 379 km
apogee height: 35237 km
right ascension of ascending node: 201.8946°
argument of perigee: 208.2297°
revolutions per day: 2.30806078
mean anomaly at epoch: 238.9136°
orbit number at epoch: 18559

The dashed part of the orbit path shows where the satellite is in the earth's shadow,  

DLR